TimeCDT,TemperatureF,Dew PointF,Humidity,Sea Level PressureIn,VisibilityMPH,Wind Direction,Wind SpeedMPH,Gust SpeedMPH,PrecipitationIn,Events,Conditions,WindDirDegrees,DateUTC
12:56 AM,63.9,59.9,87,29.86,10.0,South,13.8,-,N/A,,Clear,190,2012-10-25 05:56:00
1:56 AM,63.9,59.9,87,29.84,10.0,South,18.4,-,N/A,,Clear,190,2012-10-25 06:56:00
2:56 AM,63.9,59.9,87,29.82,10.0,South,20.7,-,N/A,,Clear,190,2012-10-25 07:56:00
3:56 AM,61.9,59.9,93,29.82,10.0,South,19.6,-,N/A,,Clear,180,2012-10-25 08:56:00
4:56 AM,61.9,59.9,93,29.83,10.0,South,18.4,-,N/A,,Clear,190,2012-10-25 09:56:00
5:56 AM,61.9,59.0,90,29.83,10.0,South,18.4,-,N/A,,Clear,180,2012-10-25 10:56:00
7:56 AM,61.9,59.0,90,29.83,10.0,South,20.7,-,N/A,,Clear,180,2012-10-25 12:56:00
8:56 AM,64.9,59.0,81,29.83,10.0,SSW,23.0,-,N/A,,Clear,200,2012-10-25 13:56:00
9:56 AM,68.9,59.9,73,29.80,10.0,SSW,29.9,-,N/A,,Clear,200,2012-10-25 14:56:00
10:56 AM,72.0,61.0,68,29.80,10.0,SSW,26.5,35.7,N/A,,Clear,210,2012-10-25 15:56:00
11:56 AM,74.8,61.9,64,29.76,10.0,SSW,32.2,38.0,N/A,,Scattered Clouds,200,2012-10-25 16:56:00
12:56 PM,73.9,61.9,66,29.75,10.0,SSW,24.2,-,N/A,,Mostly Cloudy,210,2012-10-25 17:56:00
1:56 PM,73.9,61.9,66,29.74,10.0,SSW,23.0,-,N/A,,Overcast,200,2012-10-25 18:56:00
3:56 PM,75.9,63.0,64,29.73,10.0,SSW,21.9,-,N/A,,Scattered Clouds,200,2012-10-25 20:56:00
4:56 PM,68.9,61.0,76,29.75,1.0,West,24.2,-,0.06,Rain,Light Rain,280,2012-10-25 21:56:00
5:04 PM,60.8,59.0,94,29.80,1.0,West,28.8,-,0.28,Rain,Heavy Rain,280,2012-10-25 22:04:00
5:09 PM,59.0,57.2,94,29.81,2.0,West,27.6,-,0.32,Rain-Thunderstorm,Light Thunderstorms and Rain,280,2012-10-25 22:09:00
5:17 PM,57.2,55.4,94,29.83,2.0,WNW,28.8,-,0.32,Rain-Thunderstorm,Light Thunderstorms and Rain,290,2012-10-25 22:17:00
5:26 PM,55.4,53.6,94,29.84,10.0,West,26.5,-,0.32,,Overcast,280,2012-10-25 22:26:00
5:56 PM,52.0,48.9,89,29.87,6.0,WNW,23.0,-,0.32,Rain,Light Rain,300,2012-10-25 22:56:00
6:56 PM,47.8,45.0,90,29.93,10.0,WNW,23.0,-,0.00,Rain,Light Rain,300,2012-10-25 23:56:00
7:56 PM,43.9,43.0,97,29.98,1.5,WNW,18.4,-,0.08,Rain,Heavy Rain,300,2012-10-26 00:56:00
8:56 PM,43.0,41.0,93,30.00,1.5,NW,18.4,-,0.15,Rain,Rain,320,2012-10-26 01:56:00
9:03 PM,42.8,41.0,93,30.02,4.0,NW,16.1,-,0.01,Rain,Rain,310,2012-10-26 02:03:00
9:47 PM,42.8,41.0,93,30.05,8.0,NW,17.3,-,0.06,Rain,Light Rain,310,2012-10-26 02:47:00
10:07 PM,42.8,39.2,87,30.04,10.0,NNW,24.2,-,N/A,,Overcast,330,2012-10-26 03:07:00
10:56 PM,43.0,37.9,82,30.06,10.0,NNW,21.9,-,N/A,,Mostly Cloudy,330,2012-10-26 03:56:00
11:56 PM,41.9,36.9,82,30.12,10.0,NW,20.7,-,N/A,,Overcast,320,2012-10-26 04:56:00